Powrót do katalogu

STARLINK-34121

AktywnyŁącznośćVLEO
NORAD 63961·PAYLOAD·🇺🇸 United States

Wystrzelony May 13, 2025 z Cape Canaveral Space Force Station

Loading…

Następne Przeloty (najbliższe 24 godziny)

TLE

ŚwieżeSource: CelesTrak SupGP

Epoka: Sep 15, 2026, 02:58 UTC

1 63961C 25099K   26258.12409722 -.00043344  00000+0 -15702-2 0  2584
2 63961  42.9992 186.4118 0001169 277.3414 226.0588 15.27594787    13

Śledź STARLINK-34121 w czasie rzeczywistym z AllMySat

Download on the App Store